Temp
19 20 20 20 21 21 21 21 22 23 23 23 23 23 23 24 24 25 25 26 27 27 27 27 27 26 26 29 28 29 34 33 33 33 33 31 32 30 29 27 25 25 26 23 20
19 20 20 20 21 21 21 22 22 22 23 23 23 23 23 23 24 24 26 26 27 27 26 26 27 27 30 30 30 33 34 33 33 33 34 32 32 31 30 28 25 24 23 21 20
19 20 20 20 21 21 22 22 22 22 23 23 23 24 23 23 23 27 26 26 26 26 26 27 28 29 31 31 31 33 33 34 33 32 32 33 32 31 31 31 27 25 22 21 21
19 20 20 20 21 21 22 22 22 22 23 23 23 24 24 24 29 25 25 26 26 26 26 27 28 30 32 33 31 34 33 33 33 32 32 33 32 31 31 30 28 24 23 22 21
19 20 20 21 21 21 22 22 22 22 23 23 23 24 23 24 27 25 26 26 26 26 27 28 30 31 33 33 32 34 33 33 33 32 33 32 32 31 29 27 25 24 23 22 22
19 20 20 21 21 22 22 23 23 23 23 23 24 24 24 28 25 26 26 26 25 26 27 28 30 30 32 32 33 32 32 33 33 33 32 33 31 31 27 26 24 24 23 23 23
19 19 20 21 21 22 22 23 23 23 23 23 23 23 23 26 25 26 25 24 25 26 27 27 28 30 30 32 30 32 34 34 34 33 33 33 32 31 27 26 25 25 24 24 23
19 19 20 21 21 22 23 23 23 23 23 23 23 23 27 25 25 25 24 24 24 25 27 27 27 29 31 30 32 33 34 34 34 34 32 33 32 30 28 28 27 26 25 24 23
18 19 19 20 21 22 23 23 23 23 23 22 23 22 28 25 24 24 25 25 25 25 26 27 28 30 30 33 33 33 34 33 33 34 34 33 33 29 29 28 28 26 25 25 24
18 19 20 20 21 22 23 22 22 22 22 22 23 23 25 27 25 24 24 25 26 26 27 28 30 32 33 33 32 33 33 33 33 33 34 34 34 31 29 29 28 28 26 26 25
17 18 19 20 21 22 23 22 21 21 21 27 27 27 26 25 25 25 25 26 27 28 31 30 32 32 33 34 33 33 33 32 34 34 34 34 34 32 30 30 29 28 27 27 26
17 18 19 20 21 22 22 21 22 22 25 25 25 25 25 27 27 27 26 29 29 30 31 30 31 33 32 32 32 32 32 32 32 33 33 34 33 33 31 31 30 29 28 28 27
16 17 19 20 21 21 21 21 22 22 25 27 25 27 26 26 29 27 27 29 30 31 31 32 33 32 31 31 32 33 33 33 33 32 33 33 33 31 31 30 31 30 29 28 28
16 17 18 20 21 20 21 22 22 22 27 29 27 27 26 28 29 28 28 29 30 31 31 32 32 31 31 32 33 33 33 33 32 32 32 33 32 32 33 31 30 30 29 29 28
16 16 18 18 19 20 20 22 22 22 27 30 28 27 28 29 30 28 28 29 31 31 31 32 31 31 31 33 33 32 33 33 33 33 32 32 32 33 33 32 32 31 30 30 29
16 16 18 18 20 20 21 22 21 26 26 28 28 28 29 30 30 28 28 29 30 31 31 32 31 32 34 33 33 32 32 32 32 33 31 32 32 33 33 32 34 33 30 30 29
16 17 17 18 19 20 21 21 26 26 29 29 29 30 31 30 31 30 30 29 30 29 30 31 32 33 32 32 32 32 33 31 30 31 31 31 31 32 33 32 31 31 31 29 28
16 17 19 19 20 20 20 25 25 28 29 30 30 30 30 31 31 31 30 30 31 32 32 31 30 32 33 33 32 32 33 32 29 30 31 30 30 32 31 31 30 29 30 29 28
16 17 19 20 20 20 21 24 26 28 29 29 30 30 30 31 31 30 31 31 31 31 31 31 32 33 33 33 33 32 31 33 31 31 30 32 31 32 31 31 30 28 29 29 27
15 17 16 18 19 19 23 24 28 29 28 28 29 30 30 31 30 30 30 32 32 32 32 32 31 33 30 31 30 32 33 31 32 29 29 30 29 31 31 31 29 29 28 28 27
15 16 17 18 17 20 24 26 27 27 26 28 29 30 31 31 31 31 31 32 32 32 32 32 31 30 30 31 32 30 31 32 33 31 30 30 31 32 31 31 31 29 28 28 26
11 20 16 15 20 23 25 27 26 27 26 28 28 29 30 31 31 31 31 32 32 32 31 32 32 30 31 31 31 33 33 32 31 29 31 30 31 33 31 30 30 31 28 27 27
11 15 15 15 23 24 25 26 25 27 28 28 28 29 30 30 29 31 32 32 30 32 32 32 31 30 29 30 29 30 32 32 32 31 30 29 31 30 29 29 29 29 28 26 26
10 19 18 16 19 22 25 24 25 25 27 27 28 28 28 28 29 30 32 29 29 31 27 30 32 30 31 31 33 30 31 31 31 31 31 31 30 30 30 29 29 27 26 25 25
11 17 13 21 21 22 22 24 25 26 25 25 27 27 29 28 29 29 31 28 28 24 28 31 29 31 32 32 32 32 31 31 30 31 31 31 31 31 29 29 28 28 25 24 23
10 12 13 16 16 18 17 23 24 26 25 26 25 28 28 28 29 29 30 30 29 27 28 30 29 29 30 30 30 30 32 32 30 31 31 31 30 30 28 27 27 27 26 24 23
7 8 9 16 18 19 22 22 23 23 24 24 25 25 26 28 25 27 29 30 30 29 28 28 28 27 29 29 28 28 30 30 30 30 30 29 30 29 28 28 27 27 26 25 25
Height
1534 1532 1529 1527 1524 1522 1520 1517 1515 1512 1511 1510 1510 1511 1512 1512 1512 1513 1513 1516 1517 1518 1519 1520 1521 1523 1523 1522 1520 1516 1505 1512 1512 1510 1512 1517 1517 1524 1528 1531 1536 1538 1540 1547 1552
1533 1531 1528 1526 1524 1521 1519 1516 1513 1510 1509 1508 1508 1509 1510 1511 1511 1510 1512 1512 1514 1517 1519 1521 1523 1523 1520 1519 1518 1509 1504 1514 1512 1511 1510 1516 1517 1523 1526 1532 1538 1540 1545 1549 1553
1532 1529 1527 1525 1522 1520 1517 1514 1511 1508 1507 1507 1507 1507 1508 1509 1511 1508 1507 1509 1512 1515 1520 1522 1522 1522 1518 1517 1516 1511 1510 1512 1512 1516 1515 1516 1520 1524 1524 1525 1535 1540 1546 1551 1555
1531 1528 1525 1523 1521 1518 1515 1512 1510 1507 1506 1506 1505 1506 1507 1509 1504 1505 1506 1508 1511 1514 1518 1521 1521 1519 1514 1512 1515 1509 1513 1514 1513 1517 1517 1516 1521 1525 1527 1530 1534 1541 1546 1550 1555
1529 1526 1523 1521 1519 1516 1513 1510 1508 1506 1505 1504 1504 1504 1506 1509 1507 1504 1504 1506 1510 1514 1518 1520 1519 1517 1512 1513 1514 1510 1513 1514 1514 1516 1517 1519 1522 1526 1533 1535 1539 1543 1549 1552 1556
1528 1525 1522 1519 1516 1514 1511 1508 1506 1504 1503 1503 1503 1504 1506 1505 1505 1503 1503 1506 1510 1515 1517 1519 1518 1518 1515 1514 1512 1515 1514 1514 1514 1516 1518 1518 1525 1527 1537 1539 1542 1546 1550 1554 1558
1525 1523 1520 1516 1514 1512 1509 1507 1504 1503 1502 1501 1502 1503 1505 1506 1504 1504 1505 1508 1512 1515 1517 1518 1518 1518 1516 1514 1517 1515 1510 1509 1512 1514 1518 1519 1526 1529 1536 1540 1543 1547 1551 1555 1559
1523 1520 1517 1514 1512 1510 1507 1505 1503 1501 1501 1501 1501 1503 1502 1502 1503 1504 1506 1508 1511 1514 1517 1518 1518 1518 1515 1517 1515 1510 1509 1511 1510 1513 1518 1517 1526 1531 1536 1539 1543 1547 1551 1555 1559
1521 1518 1515 1512 1510 1508 1506 1504 1502 1501 1501 1501 1502 1502 1500 1500 1502 1504 1507 1510 1512 1514 1516 1517 1518 1515 1516 1510 1510 1508 1509 1510 1514 1512 1515 1516 1518 1530 1535 1538 1542 1546 1550 1553 1557
1518 1516 1513 1510 1507 1506 1504 1502 1501 1500 1500 1501 1501 1505 1499 1498 1500 1503 1505 1509 1512 1514 1517 1517 1515 1510 1508 1507 1517 1511 1511 1510 1512 1512 1513 1514 1512 1527 1532 1535 1540 1544 1548 1552 1555
1516 1513 1510 1508 1505 1503 1502 1502 1503 1501 1498 1494 1494 1494 1495 1497 1499 1502 1504 1508 1511 1512 1508 1513 1510 1509 1501 1501 1503 1506 1511 1513 1507 1508 1512 1509 1511 1522 1530 1532 1537 1541 1546 1549 1552
1513 1510 1507 1505 1503 1501 1500 1502 1501 1501 1496 1491 1492 1494 1495 1496 1498 1502 1504 1505 1507 1505 1505 1511 1509 1497 1503 1506 1509 1510 1511 1512 1510 1511 1513 1508 1514 1516 1525 1527 1531 1537 1542 1545 1550
1510 1507 1505 1502 1500 1499 1498 1499 1499 1498 1495 1486 1487 1489 1492 1495 1493 1497 1501 1501 1501 1500 1503 1500 1496 1500 1504 1507 1509 1506 1505 1507 1507 1512 1510 1511 1516 1520 1522 1525 1528 1531 1537 1541 1545
1508 1504 1501 1500 1502 1498 1498 1497 1497 1497 1488 1475 1481 1482 1487 1489 1491 1493 1497 1499 1499 1498 1499 1497 1498 1502 1503 1502 1499 1504 1502 1503 1508 1512 1518 1509 1523 1510 1510 1519 1524 1527 1532 1535 1540
1504 1501 1499 1498 1497 1497 1497 1496 1496 1497 1497 1466 1475 1477 1479 1483 1479 1490 1494 1496 1492 1494 1498 1494 1496 1500 1501 1496 1495 1501 1502 1503 1505 1508 1511 1515 1521 1504 1504 1511 1511 1518 1524 1529 1534
1500 1497 1494 1494 1493 1494 1494 1495 1497 1495 1493 1468 1468 1471 1475 1476 1478 1484 1490 1494 1492 1491 1493 1488 1495 1493 1489 1494 1495 1502 1506 1507 1506 1503 1526 1508 1515 1507 1501 1507 1502 1506 1518 1523 1529
1495 1493 1490 1490 1492 1490 1491 1495 1491 1487 1461 1462 1463 1462 1464 1468 1472 1477 1482 1487 1488 1500 1498 1491 1490 1490 1493 1497 1500 1500 1501 1517 1525 1521 1523 1511 1520 1507 1497 1502 1508 1508 1509 1518 1525
1489 1486 1483 1483 1485 1487 1490 1490 1488 1463 1459 1455 1454 1457 1461 1460 1466 1470 1476 1482 1480 1478 1481 1494 1503 1488 1487 1486 1495 1497 1493 1506 1536 1524 1513 1515 1523 1505 1502 1505 1507 1508 1506 1514 1521
1484 1481 1478 1477 1479 1483 1489 1481 1468 1461 1454 1456 1455 1458 1459 1456 1461 1468 1469 1472 1472 1477 1482 1486 1486 1477 1483 1485 1486 1496 1506 1489 1505 1506 1518 1502 1506 1496 1501 1501 1503 1504 1505 1509 1516
1478 1476 1475 1473 1474 1480 1480 1470 1457 1455 1458 1457 1457 1450 1458 1455 1464 1464 1466 1462 1466 1471 1471 1474 1489 1477 1488 1489 1492 1490 1485 1505 1500 1527 1531 1509 1515 1506 1501 1498 1502 1503 1505 1508 1515
1478 1476 1470 1469 1473 1477 1466 1459 1456 1458 1460 1456 1451 1449 1446 1450 1454 1456 1457 1456 1459 1466 1471 1472 1479 1486 1488 1487 1483 1495 1495 1492 1485 1498 1510 1517 1503 1491 1497 1497 1498 1501 1504 1507 1512
1478 1471 1467 1467 1471 1462 1455 1453 1456 1456 1458 1455 1454 1449 1445 1440 1446 1448 1452 1452 1455 1458 1469 1469 1474 1484 1481 1479 1481 1473 1478 1484 1498 1510 1499 1507 1504 1484 1492 1497 1499 1498 1503 1506 1511
1479 1473 1467 1468 1455 1452 1452 1449 1457 1453 1450 1451 1449 1448 1445 1445 1451 1442 1445 1448 1455 1458 1461 1465 1473 1487 1490 1485 1485 1484 1480 1479 1480 1486 1499 1510 1497 1489 1494 1496 1498 1499 1502 1505 1509
1481 1464 1464 1464 1458 1451 1446 1449 1450 1452 1450 1450 1447 1448 1446 1447 1444 1443 1442 1454 1457 1456 1461 1465 1462 1471 1476 1474 1466 1484 1478 1479 1481 1491 1489 1488 1489 1486 1490 1493 1496 1499 1502 1504 1507
1480 1465 1467 1448 1452 1452 1450 1443 1443 1444 1450 1450 1447 1446 1442 1445 1443 1444 1439 1455 1458 1461 1463 1461 1471 1465 1460 1458 1461 1463 1471 1474 1481 1478 1485 1477 1478 1479 1490 1493 1495 1497 1500 1501 1503
1479 1475 1468 1463 1458 1458 1453 1444 1442 1439 1444 1444 1446 1438 1441 1443 1438 1440 1440 1444 1449 1460 1460 1459 1466 1465 1465 1467 1467 1470 1463 1465 1473 1471 1471 1473 1480 1479 1488 1492 1494 1496 1497 1498 1499
1480 1477 1476 1457 1452 1451 1442 1443 1442 1445 1445 1445 1445 1445 1442 1440 1446 1444 1438 1438 1440 1448 1453 1457 1461 1470 1470 1469 1473 1480 1466 1466 1467 1467 1473 1483 1477 1480 1486 1490 1492 1492 1492 1493 1495
Wind_Speed
15 16 16 16 17 17 16 15 13 12 11 10 9 9 9 9 10 12 13 9 12 7 6 5 5 5 4 4 2 3 3 7 8 7 8 10 9 6 8 12 8 4 15 26 27
16 17 17 16 17 18 17 16 15 12 10 9 8 8 8 7 8 12 10 10 12 14 9 8 7 7 5 2 2 6 6 7 5 5 6 9 6 10 8 12 13 18 22 28 27
16 17 17 17 17 18 18 18 16 12 7 6 6 7 6 4 4 4 7 13 14 15 10 7 7 7 5 3 1 1 9 4 4 5 1 11 7 6 9 6 12 24 28 27 26
17 17 18 18 18 18 18 18 16 10 4 5 5 6 6 5 1 3 5 15 15 17 12 9 8 9 5 3 1 5 6 6 3 3 5 10 12 7 8 7 13 24 27 27 25
17 18 18 18 18 18 18 17 15 9 6 5 4 6 7 5 2 3 7 15 17 18 13 11 10 6 6 4 4 1 6 4 2 3 5 12 10 12 12 15 21 25 24 23 23
18 18 18 19 18 18 18 17 13 10 6 5 4 7 6 6 2 2 10 17 16 14 13 11 6 4 4 3 2 3 4 1 3 6 8 11 12 9 11 17 21 22 21 21 20
19 19 18 19 19 17 17 16 13 9 5 4 3 8 5 1 3 7 12 13 14 11 12 9 5 5 4 6 1 3 6 6 7 9 10 9 10 9 17 18 20 19 19 19 18
19 19 19 18 18 17 15 15 12 5 2 1 2 6 1 6 6 11 11 11 13 8 10 7 4 3 3 3 5 7 6 7 8 10 6 13 13 13 18 19 18 17 17 17 17
19 19 19 18 17 15 14 11 8 4 2 1 3 3 5 6 8 13 11 11 12 10 9 9 4 4 6 9 8 7 7 7 9 10 8 13 17 15 18 17 17 16 16 17 16
19 19 19 18 16 14 13 9 5 6 5 2 4 4 6 7 11 14 12 14 13 14 11 8 8 9 8 9 9 9 6 7 10 12 11 13 8 14 19 18 17 16 16 17 18
20 19 18 18 16 13 9 5 5 3 7 7 2 2 9 11 13 13 15 15 16 17 12 12 10 13 15 12 4 2 4 6 10 6 11 10 7 13 17 17 17 17 16 16 15
21 20 18 17 15 12 5 2 2 3 8 12 14 9 8 14 13 17 18 14 18 15 10 7 13 9 2 7 8 6 7 8 5 7 12 12 9 9 15 16 18 18 18 17 16
21 20 18 15 15 8 7 5 4 6 7 7 11 14 15 15 19 23 22 12 17 15 16 13 5 10 10 10 11 10 10 10 6 9 8 5 12 11 12 14 15 17 18 18 18
21 20 18 14 7 4 4 8 4 3 5 11 10 11 15 16 11 22 23 14 9 15 12 9 11 8 9 12 12 14 4 5 9 13 11 12 10 15 15 15 17 21 19 20 19
20 20 17 14 11 8 7 8 2 2 5 12 9 10 22 19 18 19 24 15 13 10 10 9 13 12 12 13 12 9 7 5 5 9 4 11 9 6 11 15 17 22 24 22 22
20 19 18 15 12 9 9 5 5 7 10 9 10 16 21 24 12 20 22 15 7 9 13 4 3 6 10 5 9 11 10 7 6 8 10 9 9 11 10 14 17 22 24 25 21
21 19 18 14 5 5 12 7 7 10 4 9 11 20 24 17 15 18 22 20 12 15 13 14 12 6 10 12 9 14 13 8 7 8 3 6 6 11 5 3 6 12 19 26 24
22 20 17 15 13 13 8 10 12 8 13 1 6 18 23 21 17 18 21 19 21 17 14 14 16 14 13 14 12 17 11 7 4 6 6 6 5 2 2 8 11 12 16 24 25
21 18 13 12 13 18 14 14 11 13 5 6 9 17 22 17 14 16 19 21 22 17 11 15 11 13 10 7 8 10 8 5 5 1 7 5 4 11 2 4 7 7 16 25 26
23 17 8 11 12 18 12 19 15 7 4 7 13 16 21 23 16 19 18 22 22 22 18 8 13 14 7 9 3 8 7 7 8 4 6 7 4 2 1 4 2 3 12 20 24
17 7 7 9 13 15 14 21 22 12 9 7 10 10 16 20 23 22 17 9 23 21 22 9 10 11 10 13 15 7 11 9 5 4 6 4 3 6 2 2 1 3 10 18 25
5 4 4 18 11 16 15 18 9 14 14 9 6 9 12 16 22 20 23 20 18 22 23 21 11 9 17 5 5 9 13 15 10 12 7 7 8 6 2 2 5 5 9 15 23
10 8 4 9 7 11 12 20 15 13 13 12 9 7 7 12 15 21 19 11 14 19 19 16 11 13 8 7 5 10 11 11 13 7 11 9 5 6 5 4 7 9 8 13 20
6 3 8 13 11 10 18 17 19 17 13 11 8 7 8 9 10 14 19 8 14 17 7 14 15 17 14 17 16 17 15 16 16 13 13 13 16 9 5 3 3 7 10 11 19
5 1 4 4 12 11 5 5 17 15 15 10 13 16 13 10 14 12 17 10 11 7 10 11 12 16 20 11 13 15 18 19 20 19 18 15 12 4 5 1 2 4 8 14 20
5 5 4 10 5 9 9 12 12 16 7 12 12 12 19 14 14 13 14 15 11 11 12 9 8 9 13 9 13 16 19 17 20 20 13 14 13 4 3 2 4 7 9 14 20
5 6 6 3 6 7 15 15 12 2 9 3 5 7 12 12 3 5 1 7 8 14 13 12 8 8 14 8 7 11 15 17 18 12 15 13 10 5 5 5 8 11 12 15 17
Wind_Direction
352 350 349 350 347 346 347 342 331 311 299 281 274 266 259 260 259 254 250 232 218 185 170 157 155 206 218 239 275 282 181 82 69 53 107 137 123 94 94 119 75 88 136 149 149
347 346 344 344 344 341 342 341 335 316 294 276 273 265 252 254 267 264 242 220 203 197 169 163 179 192 210 222 219 265 81 47 31 33 66 145 143 132 138 117 99 111 126 144 150
344 342 340 339 340 339 338 340 338 325 290 273 270 254 241 241 268 217 213 203 191 183 174 180 181 204 197 211 86 331 62 55 66 42 150 147 139 131 121 130 143 143 143 149 153
340 339 337 336 337 337 336 338 338 337 313 291 268 237 210 197 235 195 189 185 182 174 175 181 194 200 191 165 84 168 72 48 32 70 148 150 122 120 61 57 128 148 150 152 158
337 336 334 333 333 335 333 335 334 333 321 308 257 210 183 215 234 232 199 173 174 176 181 184 195 190 174 129 145 108 55 31 9 108 149 132 141 114 75 105 129 145 153 157 160
333 333 331 330 330 332 331 332 330 325 313 312 234 189 176 221 214 170 173 165 168 167 175 180 190 209 147 123 300 16 337 1 134 123 140 141 135 142 112 128 135 148 155 160 164
330 330 329 326 327 330 329 330 325 311 295 317 199 179 202 59 161 145 147 168 171 172 173 175 170 224 171 146 96 270 256 146 154 161 146 139 154 94 142 143 143 151 157 163 171
327 327 325 323 323 328 326 328 328 315 271 306 171 166 194 187 160 159 157 160 172 175 172 168 192 197 232 144 188 239 253 202 146 176 149 232 113 140 155 154 150 151 160 166 175
325 323 322 320 319 323 322 322 316 310 267 260 179 167 158 176 161 171 167 171 166 164 162 171 186 210 188 215 208 201 206 214 157 205 153 230 115 151 163 159 155 158 163 170 174
322 320 320 320 315 318 318 317 301 289 264 250 215 214 197 190 168 168 173 166 162 159 157 189 207 211 209 218 222 169 185 195 187 189 213 200 123 155 169 163 163 168 171 174 179
322 321 318 318 313 312 310 316 296 242 226 238 159 305 144 147 149 163 159 161 163 177 187 198 215 213 217 218 18 100 245 237 204 161 220 220 194 159 177 173 168 169 178 180 184
322 321 319 317 310 306 265 242 310 311 289 240 234 233 174 164 157 162 161 168 179 191 192 186 226 208 172 183 207 213 222 189 167 191 223 217 232 157 183 192 179 175 177 181 178
322 320 318 318 310 293 224 219 253 330 259 199 207 210 188 183 177 175 179 187 192 192 199 219 129 145 186 183 202 207 225 154 177 177 212 226 215 201 200 201 197 188 182 185 187
321 319 318 321 318 291 275 199 261 301 265 169 198 204 185 185 204 185 187 181 196 205 195 222 155 185 199 206 213 171 169 173 166 194 208 208 244 192 198 201 203 200 191 189 190
317 315 312 312 290 287 241 191 271 199 253 131 147 163 178 184 147 188 188 198 195 183 206 167 191 202 208 196 198 103 161 179 188 215 237 187 252 109 190 216 213 206 201 198 192
312 312 304 304 282 257 215 205 171 228 234 168 160 177 176 203 187 154 182 209 226 201 224 171 159 222 204 141 201 140 152 161 204 232 222 241 230 255 191 227 237 210 208 202 190
310 304 295 283 252 255 201 187 214 235 123 174 183 178 188 183 172 176 183 193 193 190 195 202 201 163 178 145 157 195 194 207 215 201 219 91 249 259 359 303 287 284 200 206 193
311 304 287 266 241 206 182 215 227 223 224 41 198 188 198 182 187 188 185 195 215 211 186 197 185 186 185 206 182 208 233 271 208 222 142 158 242 118 55 297 283 258 225 201 195
316 312 290 255 220 196 200 214 216 235 262 221 188 193 200 189 194 192 203 203 198 208 223 202 209 151 192 176 219 169 227 309 278 232 262 144 169 242 194 269 319 239 206 196 193
324 318 253 232 200 184 210 228 227 235 232 221 217 202 198 193 201 195 192 209 201 197 234 198 214 182 147 169 156 270 157 206 228 243 256 144 249 45 162 27 16 202 208 200 195
328 298 249 225 174 190 215 223 234 225 233 224 235 221 228 201 204 196 192 183 204 198 211 185 234 154 170 207 207 177 213 235 295 297 293 236 145 123 177 348 348 208 204 203 201
328 251 273 152 196 209 217 222 239 249 220 237 260 263 228 209 202 208 210 210 197 201 203 217 212 195 206 111 287 235 232 204 224 192 237 301 288 108 160 276 246 240 209 210 206
310 272 251 191 224 205 217 223 229 231 221 223 227 231 211 220 216 209 208 152 179 183 193 181 219 208 188 179 187 221 211 233 243 277 267 262 265 130 148 229 242 245 226 212 206
296 261 188 205 259 283 206 218 217 221 251 238 259 236 208 210 208 209 208 161 187 197 147 194 214 227 213 214 209 205 224 221 230 242 249 223 264 180 151 242 243 246 237 223 210
248 291 317 202 216 242 264 241 216 209 222 220 234 240 224 220 195 204 194 154 174 162 188 204 222 223 241 270 271 223 226 220 229 240 256 265 282 270 184 199 317 281 237 222 213
293 323 315 283 259 234 211 217 227 217 222 212 236 231 228 239 213 185 188 189 172 179 182 207 216 209 229 240 243 243 244 239 229 247 250 251 252 87 230 279 283 277 255 236 226
311 296 287 243 220 229 223 231 218 163 192 274 258 250 231 224 347 304 40 204 157 175 182 178 168 197 228 192 217 234 229 228 228 228 234 224 252 155 220 256 282 289 285 270 251